Temp
12 14 15 16 15 19 20 21 21 19 18 20 21 21 21 22 21 21 22 22 22 22 22 21 20 18 17 16 16 16 15 14 13 12 12 10 10 10 10 11 10 10 10 10
13 13 12 14 15 17 18 18 17 18 18 19 20 20 19 19 19 20 20 21 21 21 21 20 19 18 17 17 16 16 15 15 14 13 12 13 12 11 9 10 10 9 9 11
13 12 12 13 15 16 16 19 18 19 17 18 18 19 20 19 19 19 19 19 19 18 17 18 18 18 17 17 16 15 15 15 14 13 13 12 11 9 9 9 9 9 10 10
12 12 13 15 17 20 18 19 19 18 19 19 17 17 18 19 19 18 18 18 17 17 16 16 15 15 15 15 14 14 14 13 13 13 12 12 12 12 12 12 11 9 10 11
11 13 16 16 16 19 16 18 18 19 19 20 18 19 18 19 18 17 18 17 17 16 15 15 14 13 13 12 12 12 12 12 12 11 12 12 12 12 12 11 11 8 10 10
15 15 15 16 17 18 17 17 17 18 19 18 16 18 19 19 17 17 17 17 16 16 16 15 14 14 13 12 11 11 11 11 11 11 11 11 11 12 11 11 10 9 8 9
15 14 15 15 17 17 17 18 17 17 17 18 14 17 17 17 18 17 17 17 17 16 16 16 16 16 14 13 12 11 10 11 11 11 10 11 11 11 10 10 10 10 9 7
13 13 14 14 15 17 16 17 19 18 18 18 14 17 16 16 17 16 16 17 17 17 17 17 16 15 14 13 13 12 11 11 10 10 10 10 10 10 10 9 9 9 9 8
14 13 13 13 14 15 16 17 16 15 12 16 18 16 16 16 15 16 16 16 16 16 16 16 16 14 13 13 12 11 10 10 10 10 9 9 9 9 9 9 9 9 8 8
14 13 13 13 14 14 15 16 16 16 15 16 17 16 18 15 15 16 16 16 16 16 16 16 15 14 13 12 12 11 11 10 10 9 9 8 8 8 9 9 8 8 8 8
14 15 13 13 13 13 13 13 13 15 15 16 16 18 20 17 17 17 15 15 16 16 16 15 13 13 12 12 12 11 11 10 10 9 8 8 8 8 8 8 8 8 8 8
14 15 14 14 12 12 13 16 17 17 14 15 15 17 17 18 17 15 16 16 16 15 15 14 13 12 12 11 11 11 11 11 10 9 8 8 8 7 7 7 7 7 7 7
14 11 12 12 13 13 14 14 16 16 16 14 14 18 16 17 16 15 16 17 16 15 15 14 13 12 11 11 11 11 11 10 10 9 8 8 7 7 7 7 7 6 6 6
13 13 14 15 14 15 12 13 15 15 14 15 16 17 17 16 16 16 18 17 15 14 14 13 12 11 11 10 11 11 11 10 9 8 8 7 7 7 7 6 6 6 5 5
13 10 11 11 12 13 13 13 13 14 15 15 17 17 18 19 19 18 16 14 14 13 13 12 11 10 10 10 11 10 9 9 8 8 7 7 7 6 6 6 5 5 4 4
11 9 9 8 10 10 9 12 13 13 14 15 15 15 16 17 17 16 14 13 13 12 12 11 11 10 10 10 10 9 9 8 7 7 6 6 6 6 5 5 5 4 4 3
9 8 9 10 7 8 9 10 11 13 14 14 13 15 16 14 13 13 13 13 13 12 12 11 11 10 10 9 9 8 8 7 7 6 6 5 5 5 5 4 4 4 4 3
7 8 9 7 6 10 13 10 10 12 13 14 14 15 15 14 13 12 12 11 12 12 12 12 10 10 9 8 8 8 7 6 5 5 5 5 5 5 4 4 3 3 3 3
9 10 6 8 9 10 15 11 9 9 13 12 13 14 14 13 10 11 12 12 12 12 11 11 10 9 8 7 7 6 6 5 5 4 5 5 4 3 3 3 2 3 2 2
6 9 10 6 9 10 14 9 10 11 12 15 14 13 13 11 11 15 12 12 11 10 10 9 9 7 6 6 6 5 4 4 4 4 4 3 2 2 1 1 1 1 1 1
6 7 9 7 8 10 12 9 9 11 14 12 13 13 13 11 13 14 12 12 10 9 8 8 7 6 6 6 5 4 4 4 4 3 3 2 2 1 1 0 0 -0 -0 -0
8 8 8 8 7 8 10 8 11 12 10 11 12 12 12 12 12 12 11 11 10 9 8 7 6 6 5 5 4 4 3 4 3 3 2 1 1 0 -1 -1 -1 -1 -1 -1
8 10 9 9 9 6 10 10 9 9 11 10 11 11 11 10 11 11 10 10 9 8 7 6 5 5 5 4 4 3 3 3 2 2 1 0 -0 -1 -1 -2 -2 -2 -2 -2
3 2 7 7 8 6 6 9 7 7 8 10 9 10 10 9 9 7 6 6 6 6 6 5 5 4 4 4 3 3 3 2 1 0 -1 -1 -2 -1 -1 -2 -2 -2 -2 -2
6 3 5 5 6 5 5 6 8 8 6 6 6 6 7 7 6 6 5 5 5 5 5 4 4 4 3 3 2 2 1 1 -0 -1 -2 -2 -2 -2 -1 -1 -1 -2 -2 -2
4 6 7 10 7 10 14 9 7 6 6 6 5 5 4 4 5 4 4 5 4 4 4 3 3 2 2 1 1 1 0 -1 -1 -2 -2 -2 -2 -2 -2 -2 -1 -1 -2 -2
Height
794 791 786 785 791 778 782 784 789 800 806 803 799 803 803 799 803 805 801 801 802 804 806 810 812 815 818 820 821 823 825 827 829 830 831 831 831 831 831 832 832 833 832 834
795 796 798 791 792 787 787 793 805 808 808 805 806 810 814 811 810 808 806 804 804 805 806 810 813 815 816 817 819 821 822 825 827 829 830 830 830 830 831 829 829 830 829 829
793 805 800 795 796 796 803 793 800 800 809 812 813 818 813 815 812 812 810 811 812 812 813 813 814 813 814 815 817 820 821 823 826 828 829 829 829 828 829 827 826 825 824 824
804 804 799 797 797 784 797 792 795 803 807 812 817 829 822 815 815 816 816 814 815 815 817 817 816 816 817 815 816 818 820 820 821 824 825 825 826 824 822 821 821 820 819 818
814 806 798 801 803 789 804 797 800 801 803 805 818 815 820 813 821 823 819 818 819 820 819 819 818 819 818 814 816 817 817 818 819 820 821 821 820 820 819 818 817 815 813 812
798 799 801 800 802 795 800 803 806 808 807 818 828 820 819 818 827 824 824 824 824 823 821 820 820 819 817 815 816 815 815 814 815 815 817 818 817 817 816 814 813 813 810 808
797 805 803 803 802 804 803 804 816 821 819 821 835 822 822 825 821 824 827 826 826 824 822 821 821 821 820 819 818 817 815 814 813 813 811 811 811 810 810 809 808 806 805 802
814 822 817 815 814 808 810 808 805 814 817 816 834 822 828 826 826 829 828 826 825 825 821 821 822 821 819 817 817 816 815 815 814 814 813 812 810 808 807 806 804 802 800 798
810 822 821 820 816 815 813 812 817 823 843 823 816 824 828 828 831 828 826 828 828 826 822 822 821 822 822 820 818 817 815 814 812 813 811 809 807 807 805 803 801 799 797 795
808 821 823 821 819 818 818 818 822 821 829 828 820 820 806 826 825 824 824 826 825 823 823 825 824 824 822 821 820 818 816 814 813 811 809 807 805 802 801 799 796 796 793 792
805 806 826 825 822 823 828 829 830 820 823 821 822 808 791 808 812 816 821 824 820 821 821 823 824 824 823 822 821 819 817 815 813 811 808 805 803 800 797 794 791 789 787 786
808 807 818 819 827 829 823 812 809 812 830 821 822 811 799 799 806 816 815 816 817 820 819 822 824 824 824 823 821 818 816 815 811 808 805 802 800 797 793 789 786 783 780 778
806 819 823 824 823 822 818 815 808 812 812 823 824 803 804 802 808 811 811 811 815 815 816 820 822 823 822 821 820 817 815 813 809 806 803 799 795 791 788 783 779 776 774 771
804 808 805 800 805 806 818 815 812 810 819 812 805 797 799 802 803 804 801 806 812 815 818 820 820 821 820 819 817 816 813 810 807 804 801 796 792 788 783 779 774 770 767 763
807 817 817 817 816 813 811 811 814 812 805 808 791 794 790 787 790 795 803 810 813 814 816 818 819 819 819 818 814 811 809 807 805 801 797 794 791 784 779 773 768 765 761 756
813 828 825 839 825 827 832 816 808 808 806 799 801 794 794 792 795 801 806 809 810 811 812 815 817 817 815 813 810 809 805 803 798 794 790 786 782 777 775 768 763 759 754 749
821 829 825 825 844 840 827 806 803 800 796 796 802 790 792 799 802 804 805 805 805 808 810 810 811 812 812 810 808 805 801 796 792 788 782 779 776 771 766 763 758 754 748 744
827 826 824 843 849 823 784 797 801 792 786 788 788 786 791 798 801 803 804 805 805 805 805 806 808 808 808 806 803 799 796 792 788 783 779 775 771 765 762 757 752 748 744 739
818 815 841 832 829 806 769 785 797 797 773 776 777 784 789 795 805 799 797 800 801 801 802 802 802 803 802 799 797 794 790 786 783 776 774 769 765 759 755 750 744 738 735 731
827 817 812 846 825 807 773 791 788 788 782 759 766 775 783 796 793 784 792 795 797 800 799 796 797 799 798 793 790 788 782 778 774 772 768 764 760 755 748 743 737 732 727 722
821 821 813 829 822 796 775 789 791 790 763 764 763 770 778 785 780 782 787 790 791 797 796 792 790 791 789 784 781 778 774 768 766 763 759 755 751 746 741 734 729 724 718 713
795 805 812 818 827 806 772 789 776 758 764 765 767 772 777 778 779 781 784 786 787 790 789 787 785 782 781 777 776 770 764 758 758 755 751 746 742 738 733 727 720 717 711 705
791 773 780 782 772 774 763 758 761 761 763 766 765 770 773 777 777 777 778 780 781 782 780 778 777 773 771 770 769 763 753 754 750 747 743 738 732 727 723 719 711 707 703 697
795 794 779 779 760 767 769 760 764 765 767 765 766 768 772 774 775 775 776 775 775 775 774 772 770 766 762 763 761 756 750 747 743 738 734 729 724 716 713 709 705 699 694 691
765 779 777 772 761 765 761 758 755 759 765 766 765 768 770 773 772 771 769 769 770 770 768 766 763 759 757 757 753 747 743 741 736 730 724 719 716 710 702 698 695 689 683 682
758 750 751 732 739 732 726 738 744 755 756 756 760 763 765 769 769 769 766 765 764 763 761 759 756 755 751 749 746 739 737 735 730 723 717 712 708 703 697 691 683 681 675 672
Wind_Speed
2 3 3 14 0 3 9 8 10 7 4 2 2 2 6 5 4 8 8 8 7 7 8 10 12 14 15 15 14 14 14 13 12 10 9 11 10 11 13 12 9 7 6 6
2 2 5 4 3 8 6 13 5 5 4 2 3 6 7 9 6 7 8 8 8 7 7 8 11 13 16 17 16 15 14 14 14 12 11 9 6 8 10 11 14 12 10 10
6 3 7 2 4 9 5 6 8 5 4 2 2 6 8 11 12 12 12 9 8 8 7 6 8 9 11 12 13 14 14 14 14 12 11 9 7 7 8 11 13 16 17 15
6 6 4 1 7 7 5 6 8 9 6 2 3 4 7 9 12 13 11 10 9 9 8 9 10 10 8 7 8 10 12 13 13 14 14 13 15 15 14 16 14 16 17 18
4 4 8 6 5 6 6 5 8 4 2 4 4 1 6 2 10 13 14 14 13 11 10 10 12 11 9 8 5 6 8 11 12 14 16 17 18 18 17 17 16 18 20 21
6 2 4 4 9 9 12 9 7 2 1 2 2 2 5 2 7 11 12 13 13 13 13 15 13 12 11 9 6 4 4 8 11 14 16 19 21 20 18 19 18 19 22 23
8 8 3 5 6 3 1 3 3 2 1 2 1 1 6 9 12 11 9 10 11 12 13 12 12 10 9 9 9 7 6 7 8 13 16 19 21 21 23 24 22 21 19 21
3 3 7 7 4 3 3 2 1 1 3 4 2 4 6 9 8 5 4 6 9 10 10 10 10 10 10 9 9 9 9 10 9 12 15 18 19 21 22 23 24 24 22 22
6 3 2 5 4 4 2 1 2 4 1 1 3 5 3 7 9 4 4 6 7 10 10 11 12 11 12 13 14 13 14 13 11 12 14 16 18 20 22 22 22 23 22 22
3 5 1 1 1 5 3 3 2 1 3 3 4 4 6 15 16 8 4 3 5 8 10 9 10 11 11 12 13 14 14 15 16 15 15 16 18 19 22 23 25 25 24 24
3 2 3 2 4 6 2 1 1 2 2 2 1 3 8 17 16 10 3 1 6 9 10 7 8 11 13 15 16 17 17 17 17 16 17 18 20 21 21 23 25 25 25 26
1 3 4 2 3 1 3 2 4 3 4 1 1 4 5 13 14 6 3 2 7 7 8 7 10 8 10 12 14 16 17 17 17 17 17 18 19 20 20 22 24 25 27 26
7 2 4 1 0 2 4 4 5 2 1 7 5 3 6 10 12 10 7 6 8 8 9 7 7 6 9 11 14 16 16 16 16 17 18 21 21 19 20 21 23 24 26 28
2 2 1 2 4 5 5 10 11 9 4 5 10 6 10 13 14 15 8 9 8 7 7 6 3 6 9 12 16 21 22 21 20 21 22 24 24 23 24 27 28 28 27 27
1 2 3 6 5 2 4 9 13 16 13 9 5 15 13 13 12 9 8 4 6 8 4 3 3 6 11 16 22 23 20 19 21 22 23 25 28 28 31 31 29 29 27 27
1 2 2 3 4 5 3 10 14 15 16 18 17 22 15 17 11 5 5 5 7 6 5 6 6 8 12 19 24 21 23 24 22 25 25 25 25 28 29 31 30 28 28 27
4 6 3 3 3 3 8 20 21 17 16 16 16 14 7 3 4 6 8 8 7 6 6 8 7 10 14 20 19 21 25 27 28 28 29 28 28 28 27 27 26 28 28 25
5 4 2 3 2 5 2 3 2 17 19 18 17 11 7 5 5 8 9 10 8 6 7 8 11 14 18 18 20 22 25 27 28 29 30 29 28 28 29 27 27 29 27 25
2 4 3 4 5 10 9 6 7 7 7 20 24 16 15 6 4 9 10 10 9 6 6 10 14 15 17 20 22 22 24 27 27 28 29 28 27 29 29 29 28 26 26 27
1 2 2 3 4 8 1 4 6 5 9 9 15 13 12 11 6 5 10 9 10 10 10 12 13 15 18 22 19 21 24 25 26 27 27 28 28 29 29 30 30 28 26 29
7 4 11 7 6 7 8 9 4 5 3 4 7 9 10 7 6 2 2 6 10 11 14 14 13 17 23 24 20 20 23 28 28 29 30 29 29 29 31 31 30 28 26 26
13 11 7 8 8 13 13 9 9 3 2 6 7 7 6 7 8 6 7 8 10 13 14 15 16 20 24 22 18 22 25 29 27 30 31 31 34 34 32 31 31 28 26 24
7 8 8 15 9 0 21 2 8 3 5 5 7 6 8 7 8 9 9 9 11 14 14 19 18 23 24 25 19 24 34 27 27 29 34 36 38 37 35 31 29 25 23 22
7 3 4 3 10 13 11 15 4 3 7 2 4 4 4 8 8 7 6 7 9 14 16 20 19 22 27 25 24 28 32 29 29 33 33 33 31 32 31 29 28 25 22 21
3 15 9 6 8 3 10 18 18 15 10 8 7 7 9 7 9 9 8 7 12 16 18 19 21 25 27 27 28 32 31 30 32 30 31 31 30 29 29 28 29 27 28 25
9 8 10 7 8 8 7 12 19 14 12 14 10 7 9 9 11 9 9 13 15 17 20 23 24 25 28 29 30 35 32 32 32 31 29 28 28 29 28 29 31 29 32 31
Wind_Direction
82 214 176 159 75 181 145 135 123 100 83 249 188 311 320 302 256 276 270 269 265 264 271 259 247 236 237 235 232 229 226 225 221 223 223 235 244 247 249 244 242 239 249 269
111 62 358 106 109 92 129 117 101 96 77 294 77 27 57 35 13 344 326 321 320 310 292 265 265 257 248 244 244 245 242 240 234 235 240 252 267 253 255 252 248 242 243 250
80 20 336 15 151 116 39 147 151 122 125 92 333 88 76 80 63 57 61 54 41 30 6 341 312 288 280 271 265 261 257 253 251 244 253 253 262 262 255 256 250 244 241 246
49 331 33 35 127 164 115 69 109 127 172 168 348 132 89 110 67 41 34 40 32 29 15 17 17 7 351 327 299 276 265 259 250 244 243 244 247 252 249 244 248 241 249 246
131 105 105 88 10 4 113 101 92 88 139 175 31 129 137 175 53 58 61 52 44 41 41 42 38 33 28 24 343 292 275 262 252 245 243 247 251 257 263 260 246 245 250 250
102 149 49 69 51 89 126 104 85 92 237 136 53 318 143 66 102 87 65 55 56 62 63 58 50 38 31 26 14 340 285 261 247 242 243 247 253 259 261 258 248 251 254 254
31 31 26 18 80 87 103 165 113 137 154 80 44 275 76 113 119 91 75 61 68 66 59 48 39 28 16 13 6 354 335 300 266 248 245 245 247 252 254 256 256 252 252 254
96 120 4 343 26 22 60 337 321 169 167 131 182 154 135 124 133 103 76 82 75 51 36 35 28 16 5 357 349 348 341 322 304 279 272 268 266 261 260 261 259 262 258 258
150 145 308 31 347 339 96 48 8 96 36 220 125 107 124 184 177 188 129 106 54 23 19 14 22 20 11 1 355 347 338 332 325 309 297 287 280 274 271 272 270 269 267 265
139 105 13 335 338 52 5 89 154 318 145 185 151 217 161 188 190 193 148 100 22 13 13 23 24 18 9 1 353 349 345 338 332 324 314 304 295 286 281 278 274 275 273 271
165 126 154 167 199 172 154 284 9 59 352 170 193 222 156 182 182 188 150 32 356 8 12 28 14 12 21 19 10 1 356 352 349 342 330 317 305 297 289 281 277 273 272 271
169 116 150 142 116 265 280 226 213 219 190 195 9 259 162 174 180 168 196 218 357 10 23 27 20 30 21 9 2 353 348 341 334 330 325 318 312 305 296 288 283 280 274 270
177 187 121 104 254 190 226 194 207 148 130 195 173 223 203 178 189 207 230 304 341 10 10 355 5 10 2 357 352 345 333 324 317 316 314 312 306 302 296 291 288 282 277 272
181 140 237 182 96 136 190 196 199 197 190 202 217 171 187 198 212 224 288 332 344 337 335 338 353 348 345 342 340 334 325 325 322 321 317 311 308 305 300 298 296 290 282 273
283 120 84 57 66 355 239 198 197 212 215 213 207 224 230 233 245 280 329 315 306 309 310 275 286 323 331 333 332 334 333 327 322 317 311 308 309 307 304 303 300 294 285 279
56 117 91 39 4 6 305 263 235 231 238 255 258 272 283 260 268 253 221 264 284 289 288 250 264 302 331 331 335 328 324 315 312 306 300 301 298 297 294 295 297 295 291 285
132 144 165 162 336 307 274 232 227 234 236 235 238 246 210 136 165 226 250 250 260 251 262 250 259 297 317 326 316 312 311 309 306 305 304 301 299 296 293 292 292 290 288 284
141 118 39 128 246 225 222 158 241 234 243 229 245 240 182 251 242 234 236 251 238 240 267 270 262 290 310 304 300 302 304 304 302 301 300 302 302 302 301 295 290 292 289 281
311 134 117 173 216 313 291 178 180 184 264 216 234 235 238 235 182 250 223 212 219 253 269 280 282 288 295 290 293 296 296 296 294 296 297 299 300 299 299 294 291 289 286 283
286 285 166 165 220 224 302 145 139 147 278 207 204 215 203 157 220 275 165 200 222 231 256 278 275 277 274 278 286 291 288 290 287 290 295 297 295 291 290 292 293 290 284 280
160 163 202 197 249 271 243 154 184 146 238 115 153 170 163 190 229 302 142 233 231 255 272 280 272 265 266 276 280 277 282 279 284 290 294 296 295 292 288 287 285 284 281 278
176 170 183 193 225 257 153 130 193 167 75 136 141 150 183 219 232 226 244 257 263 267 271 267 268 269 271 275 277 278 278 284 289 289 291 293 297 296 291 285 284 282 277 273
202 194 176 192 206 6 181 173 211 54 155 192 169 185 207 230 227 238 260 270 273 276 276 280 276 283 285 285 281 277 283 290 290 288 288 293 298 297 292 284 279 278 276 267
217 175 218 132 222 222 226 237 179 253 242 199 227 240 212 239 251 257 258 269 272 276 278 284 284 282 283 285 283 277 285 292 292 288 287 287 283 285 284 279 273 267 264 263
178 150 177 254 267 308 225 222 233 228 227 253 241 235 253 257 264 264 271 267 270 277 281 280 282 284 286 290 287 287 290 292 289 287 285 285 284 285 288 284 277 269 265 258
186 174 189 222 185 209 239 198 213 212 216 228 233 249 246 243 258 265 268 275 280 283 285 283 284 286 286 289 287 287 294 294 290 287 288 287 288 289 288 287 287 279 272 270